Tracking 30166 objects as of 22-Jan-2025
HD Live streaming from Space Station
objects crossing your sky now

PROBA-3

Track PROBA-3 now!


NORAD ID: 62256
Int'l Code: 2024-233A
Perigee: 626.2 km
Apogee: 60,598.7 km
Inclination: 59.2 °
Period: 1,179.7 minutes
Semi major axis: 36983 km
RCS: Unknown
Launch date: December 5, 2024
Source: India (IND)
Launch site: SRIHARIKOTA (SRI)
Your satellite tracking list
Your tracking list is empty




NASA's NSSDC Master Catalog

Two Line Element Set (TLE):
1 62256U 24233A   25021.43605246 -.00000268  00000-0  48447-3 0  9992
2 62256  59.2439 142.1654 8108024 189.7546 127.8033  1.22065329   577
Source of the keplerian elements: AFSPC